This is the latest recevied weather packets stored in our database for station/object N8QF. If no packets are shown the sender has not sent any weather packets the latest 10 day(s).
| Time | Temp. | Humidity | Pressure | Rain* | Wind** | Luminosity | Snow |
|---|---|---|---|---|---|---|---|
| 1777233648 | 17.22° C | 62% | 1016.3 hPa | 0 mm | - | - | - |
| 1777233347 | 17.78° C | 63% | 1016.4 hPa | 0 mm | - | - | - |
| 1777233047 | 17.78° C | 64% | 1016.5 hPa | 0 mm | - | - | - |
| 1777232747 | 17.22° C | 61% | 1016.5 hPa | 0 mm | - | - | - |
| 1777232443 | 17.22° C | 63% | 1016.5 hPa | 0 mm | - | - | - |
| 1777232142 | 17.22° C | 65% | 1016.6 hPa | 0 mm | - | - | - |
| 1777231842 | 16.67° C | 64% | 1016.6 hPa | 0 mm | - | - | - |
| 1777231541 | 17.22° C | 66% | 1016.8 hPa | 0 mm | - | - | - |
| 1777231241 | 16.67° C | 68% | 1016.9 hPa | 0 mm | - | - | - |
| 1777230940 | 16.11° C | 68% | 1016.9 hPa | 0 mm | - | - | - |
| 1777230640 | 16.11° C | 68% | 1016.9 hPa | 0 mm | - | - | - |
| 1777230340 | 16.11° C | 67% | 1016.9 hPa | 0 mm | - | - | - |
| 1777230040 | 15.56° C | 70% | 1016.9 hPa | 0 mm | - | - | - |
| 1777229739 | 15.56° C | 67% | 1017.1 hPa | 0 mm | - | - | - |
| 1777229437 | 16.11° C | 72% | 1017.1 hPa | 0 mm | - | - | - |
| 1777229136 | 15.56° C | 68% | 1017.1 hPa | 0 mm | - | - | - |
| 1777228836 | 16.11° C | 69% | 1017 hPa | 0 mm | - | - | - |
| 1777228535 | 15.56° C | 69% | 1017.1 hPa | 0 mm | - | - | - |
| 1777228234 | 15.56° C | 70% | 1017.2 hPa | 0 mm | - | - | - |
| 1777227934 | 15.56° C | 71% | 1017.2 hPa | 0 mm | - | - | - |
| 1777227633 | 15.56° C | 70% | 1017.3 hPa | 0 mm | - | - | - |
| 1777227333 | 15.56° C | 71% | 1017.4 hPa | 0 mm | - | - | - |
| 1777227032 | 15° C | 71% | 1017.5 hPa | 0 mm | - | - | - |
| 1777226732 | 14.44° C | 71% | 1017.5 hPa | 0 mm | - | - | - |
| 1777226431 | 14.44° C | 74% | 1017.5 hPa | 0 mm | - | - | - |
* Rain since midnight (hover to see other rain measurements)
** Current wind speed in m/s (hover to see current wind gust speed)